FWG117 EDDN-EDDC

Flight info

Callsign FWG117
Flight time N/A
Altitude 19000
Route ERETO1C ERETO Z715 ABKIS Q240 DRN
Aircraft A320/M-SDE3FGHIRWY/LB1

Departure

Time 2026-04-28 14:46
Airport Nuremberg Airport (EDDN)

Arrival

Time N/A
Airport Dresden Airport (EDDC)
Time Latitude Longitude Altitude Speed Heading
2026-04-28 14:25 49.49554 11.07394 1159 ft 0 kts 189°
2026-04-28 14:38 49.49557 11.07394 1158 ft 2 kts 189°
2026-04-28 14:39 49.49583 11.07398 1083 ft 4 kts 175°
2026-04-28 14:39 49.49608 11.07389 1029 ft 4 kts 150°
2026-04-28 14:39 49.49626 11.07364 1029 ft 3 kts 102°
2026-04-28 14:39 49.49627 11.07359 1029 ft 0 kts 98°
2026-04-28 14:41 49.49625 11.07378 1028 ft 4 kts 97°
2026-04-28 14:42 49.49616 11.07484 1025 ft 9 kts 99°
2026-04-28 14:42 49.49604 11.07595 1029 ft 12 kts 99°
2026-04-28 14:42 49.49598 11.07729 1029 ft 13 kts 74°
2026-04-28 14:42 49.49661 11.07760 1029 ft 11 kts 328°
2026-04-28 14:43 49.49692 11.07648 1026 ft 12 kts 278°
2026-04-28 14:43 49.49705 11.07507 1027 ft 14 kts 280°
2026-04-28 14:43 49.49723 11.07345 1027 ft 16 kts 279°
2026-04-28 14:43 49.49742 11.07156 1024 ft 20 kts 278°
2026-04-28 14:44 49.49763 11.06933 1022 ft 23 kts 278°
2026-04-28 14:44 49.49787 11.06677 1021 ft 25 kts 278°
2026-04-28 14:44 49.49815 11.06400 1021 ft 27 kts 279°
2026-04-28 14:44 49.49841 11.06125 1024 ft 23 kts 277°
2026-04-28 14:45 49.49927 11.05959 1029 ft 21 kts 340°
2026-04-28 14:45 49.50023 11.05995 1030 ft 16 kts 64°
2026-04-28 14:45 49.50024 11.06181 1026 ft 29 kts 97°
2026-04-28 14:45 49.49987 11.06603 1023 ft 90 kts 98°
2026-04-28 14:46 49.49804 11.08536 1045 ft 177 kts 98°
2026-04-28 14:46 49.49563 11.10540 1592 ft 202 kts 98°
2026-04-28 14:46 49.49329 11.12628 2494 ft 194 kts 96°
2026-04-28 14:46 49.49130 11.14701 3124 ft 203 kts 96°
2026-04-28 14:47 49.49063 11.16948 3565 ft 221 kts 82°
2026-04-28 14:47 49.49531 11.19245 4242 ft 229 kts 62°
2026-04-28 14:47 49.50503 11.21188 5051 ft 233 kts 43°
2026-04-28 14:47 49.51784 11.22770 5861 ft 237 kts 40°
2026-04-28 14:48 49.53084 11.24353 6682 ft 240 kts 40°
2026-04-28 14:48 49.53953 11.25413 7185 ft 241 kts 40°
2026-04-28 14:48 49.55279 11.27030 7975 ft 245 kts 39°
2026-04-28 14:48 49.57078 11.29227 8956 ft 252 kts 39°
2026-04-28 14:49 49.58491 11.30886 9682 ft 259 kts 32°
2026-04-28 14:49 49.59573 11.31762 10132 ft 262 kts 22°
2026-04-28 14:49 49.61326 11.32499 10757 ft 266 kts
2026-04-28 14:49 49.63166 11.32960 11443 ft 269 kts
2026-04-28 14:50 49.65020 11.33434 12141 ft 271 kts
2026-04-28 14:50 49.66888 11.33916 12836 ft 273 kts
2026-04-28 14:50 49.68764 11.34415 13527 ft 275 kts 10°
2026-04-28 14:50 49.70549 11.35533 14158 ft 282 kts 32°
2026-04-28 14:51 49.72100 11.37440 14721 ft 286 kts 37°
2026-04-28 14:51 49.73636 11.39422 15295 ft 289 kts 37°
2026-04-28 14:51 49.75181 11.41436 15884 ft 292 kts 37°
2026-04-28 14:51 49.76746 11.43487 16463 ft 298 kts 37°
2026-04-28 14:52 49.78398 11.45645 16851 ft 323 kts 37°
2026-04-28 14:52 49.80163 11.47942 17227 ft 347 kts 37°
2026-04-28 14:52 49.82066 11.50415 17504 ft 366 kts 37°
2026-04-28 14:52 49.84069 11.53024 17642 ft 384 kts 37°
2026-04-28 14:53 49.86148 11.55745 17920 ft 397 kts 38°
2026-04-28 14:53 49.88268 11.58534 18493 ft 403 kts 38°
2026-04-28 14:53 49.90419 11.61369 18974 ft 407 kts 38°
2026-04-28 14:53 49.92575 11.64215 19130 ft 408 kts 37°
2026-04-28 14:54 49.94788 11.67128 19173 ft 426 kts 37°
2026-04-28 14:54 49.97092 11.70157 19170 ft 440 kts 37°
2026-04-28 14:54 49.99443 11.73250 19189 ft 444 kts 38°
2026-04-28 14:54 50.01806 11.76364 19191 ft 445 kts 38°
2026-04-28 14:55 50.04170 11.79489 19203 ft 445 kts 38°
2026-04-28 14:55 50.06531 11.82621 19205 ft 445 kts 38°
2026-04-28 14:55 50.08858 11.85709 19211 ft 445 kts 38°
2026-04-28 14:55 50.11215 11.88840 19211 ft 445 kts 38°
2026-04-28 14:56 50.13565 11.91965 19215 ft 444 kts 38°
2026-04-28 14:56 50.15922 11.95102 19216 ft 444 kts 38°
2026-04-28 14:56 50.18271 11.98233 19218 ft 443 kts 38°
2026-04-28 14:56 50.20619 12.01366 19215 ft 443 kts 38°
2026-04-28 14:57 50.22959 12.04492 19223 ft 443 kts 38°
2026-04-28 14:57 50.24518 12.06575 19219 ft 443 kts 38°
2026-04-28 14:57 50.27644 12.10765 19215 ft 443 kts 38°
2026-04-28 14:57 50.29978 12.13900 19212 ft 442 kts 38°
2026-04-28 14:58 50.32300 12.17065 19209 ft 443 kts 40°
2026-04-28 14:58 50.34361 12.20589 19207 ft 445 kts 50°
2026-04-28 14:58 50.36070 12.24633 19213 ft 448 kts 59°
2026-04-28 14:58 50.37524 12.28958 19210 ft 448 kts 60°
2026-04-28 14:59 50.38973 12.33287 19202 ft 448 kts 60°
2026-04-28 14:59 50.40421 12.37604 19208 ft 447 kts 59°
2026-04-28 14:59 50.41872 12.41928 19206 ft 447 kts 59°
2026-04-28 14:59 50.43318 12.46241 19202 ft 447 kts 59°
2026-04-28 15:00 50.44761 12.50555 19199 ft 447 kts 60°
2026-04-28 15:00 50.46204 12.54877 19208 ft 448 kts 60°
2026-04-28 15:00 50.47635 12.59176 18787 ft 435 kts 60°
2026-04-28 15:00 50.49009 12.63328 17800 ft 420 kts 60°
2026-04-28 15:01 50.50327 12.67314 17132 ft 402 kts 60°
2026-04-28 15:01 50.51596 12.71153 16473 ft 401 kts 60°
2026-04-28 15:01 50.52887 12.75047 15854 ft 399 kts 60°
2026-04-28 15:01 50.54168 12.78905 15232 ft 398 kts 60°
2026-04-28 15:02 50.55452 12.82779 14619 ft 396 kts 60°
2026-04-28 15:02 50.56716 12.86605 13998 ft 394 kts 60°
2026-04-28 15:02 50.57975 12.90439 13317 ft 392 kts 60°
2026-04-28 15:02 50.59214 12.94232 12681 ft 388 kts 60°
2026-04-28 15:03 50.60427 12.97954 12028 ft 385 kts 60°
2026-04-28 15:03 50.61644 13.01688 11403 ft 381 kts 60°
2026-04-28 15:03 50.62986 13.05155 11244 ft 361 kts 51°
2026-04-28 15:03 50.64620 13.08021 11123 ft 343 kts 40°
2026-04-28 15:04 50.66370 13.10446 10992 ft 328 kts 39°